Showing default

EUROBIRD 4A(EUTELSAT W1), 26487

Orbit data source: Space-Track

EUROBIRD 4A(EUTELSAT W1), 26487 is a payload satellite owned by Eutelsat (FR) in GEO that was launched on Wed, 06 Sep 2000 UTC via an ARIANE 44P launch vehicle from the French Guiana (FRGUI). Payload-class satellites include a variety of spacecraft equipped with specific instruments for various scientific and technological missions. These include communications satellites like Starlink; space stations such as the ISS; scientific satellites like the Hubble; Earth observation satellites from companies like Planet Labs, Umbra, and HawkEye 360; GPS; miniature CubeSats for education and research; and military/defense satellites.

Not visible in the next 10 days
Identifier
26487, 2000-052A
Orbit
GEO
Country
Flag of FRFR / EUTE
Related business
Manufacturer
Astrium/Toulouse
Mission
Non-operational Civil Communications
Bus & Motor
EUROSTAR 2000+, R-4D-11-300
Mass
3,250 kg wet, 1,430 kg dry
Launch date (UTC)
2000-09-06 (26 years ago)
Launch vehicle
ARIANE 44P
Launch site
French Guiana (FRGUI)
Object type
Payload
Rocket body
Debris
Shape & HBR
Box + 2 Pan, 15.8 m
Radar Cross Section
35.202 m², Large (>1 m²)

Expand to show TLE details & history
Last TLE update: 1 day ago

TLE from 1 day ago
0 EUROBIRD 4A(EUTELSAT W1)
1 26487U 00052A   26094.09142103 -.00000138  00000-0  00000-0 0  9998
2 26487  11.1835  46.7107 0013317 290.7278 263.4343  0.98181122 92450
Epoch: 2026-04-04T02:11Z
TLE epoch observation values (Epoch: 2026-04-04T02:11:38.776Z)
Latitude
-2.69705°
Longitude
15.15168°
Altitude
36,389.878 km
Speed
3.053 km/s
True Right ascension
16h 01m 55s
True Declination
-2° 41' 40"
Sunlit
Object was in daylight at epoch
Visualization orbit readout
Latitude
Unknown
Longitude
Unknown
Altitude
Unknown
Speed
Unknown
Apparent Right ascension
Unknown
Apparent Declination
Unknown
Sunlit
N/A
Visualization observer readout
Local Sidereal Time
08:05:53
Azimuth
Unknown
Elevation
Unknown
Doppler factor
Unknown
Orbital elements
Apogee altitude
36,441.004 km
Perigee altitude
36,327.111 km
Semi-major axis
42,762.194 km
Eccentricity
0.00133
Inclination
11.1835°
RAAN
46.7107°
Arg. of periapsis
290.7278°
True anomaly
263.28273°
Mean anomaly
263.4343°
Eccentric anomaly
263.35851°
Mean motion
0.24544 °/min
Orbital period
1,466.73 mins
BSTAR
0
Loading maneuver chart data...
Computing Atmospheric mass density...
Loading historical data...
Loading historical data...
Loading historical data...
Loading historical data...
Loading historical data...
Loading historical data...
Loading historical data...
Other satellites on launch #52 in the year 2000 (2000-09-06 UTC)

Documentation

Showing up to 5 results
|